DAL4178 KATL-KIAH

Flight info

Callsign DAL4178
Flight time N/A
Altitude 34000
Route KAJIN2 STNGA MHZ AEX SKNRD5
Aircraft A321/M-SDE3FGHIRWY/LB1

Departure

Time 2026-05-01 13:45
Airport Hartsfield Jackson Atlanta International Airport (KATL)

Arrival

Time N/A
Airport George Bush Intercontinental Airport (KIAH)
Time Latitude Longitude Altitude Speed Heading
2026-05-01 13:17 33.63920 -84.43645 1036 ft 0 kts 89°
2026-05-01 13:38 33.63920 -84.43659 1035 ft 4 kts 89°
2026-05-01 13:38 33.63921 -84.43690 1035 ft 4 kts 106°
2026-05-01 13:39 33.63933 -84.43716 1035 ft 4 kts 150°
2026-05-01 13:39 33.63949 -84.43722 1035 ft 0 kts 180°
2026-05-01 13:41 33.63947 -84.43722 1035 ft 2 kts 180°
2026-05-01 13:41 33.63889 -84.43723 1035 ft 15 kts 180°
2026-05-01 13:41 33.63771 -84.43724 1035 ft 10 kts 180°
2026-05-01 13:41 33.63769 -84.43724 1035 ft 0 kts 180°
2026-05-01 13:42 33.63723 -84.43725 1035 ft 16 kts 186°
2026-05-01 13:42 33.63586 -84.43797 1036 ft 21 kts 247°
2026-05-01 13:42 33.63582 -84.43945 1036 ft 14 kts 270°
2026-05-01 13:42 33.63582 -84.44059 1036 ft 13 kts 270°
2026-05-01 13:43 33.63583 -84.44160 1036 ft 11 kts 270°
2026-05-01 13:43 33.63582 -84.44260 1036 ft 15 kts 270°
2026-05-01 13:43 33.63583 -84.44399 1036 ft 15 kts 270°
2026-05-01 13:43 33.63541 -84.44485 1036 ft 12 kts 199°
2026-05-01 13:44 33.63480 -84.44444 1036 ft 12 kts 117°
2026-05-01 13:44 33.63472 -84.44138 1036 ft 79 kts 89°
2026-05-01 13:44 33.63480 -84.43146 1034 ft 154 kts 90°
2026-05-01 13:44 33.63479 -84.41655 1285 ft 195 kts 90°
2026-05-01 13:45 33.63443 -84.39907 1881 ft 227 kts 92°
2026-05-01 13:45 33.63175 -84.37880 2519 ft 263 kts 104°
2026-05-01 13:45 33.62596 -84.35755 3290 ft 272 kts 108°
2026-05-01 13:45 33.62013 -84.33627 4364 ft 265 kts 108°
2026-05-01 13:46 33.61450 -84.31515 5237 ft 270 kts 107°
2026-05-01 13:46 33.60857 -84.29337 5965 ft 279 kts 111°
2026-05-01 13:46 33.59915 -84.27284 6711 ft 284 kts 130°
2026-05-01 13:46 33.58390 -84.25820 7385 ft 286 kts 160°
2026-05-01 13:47 33.56429 -84.25486 7949 ft 289 kts 189°
2026-05-01 13:47 33.54464 -84.25993 8724 ft 287 kts 199°
2026-05-01 13:47 33.52551 -84.26634 9706 ft 285 kts 200°
2026-05-01 13:47 33.50642 -84.27274 10500 ft 286 kts 201°
2026-05-01 13:48 33.48781 -84.28079 11266 ft 282 kts 211°
2026-05-01 13:48 33.47149 -84.29324 12033 ft 275 kts 228°
2026-05-01 13:48 33.45997 -84.31174 12349 ft 286 kts 250°
2026-05-01 13:48 33.45648 -84.33584 12504 ft 306 kts 269°
2026-05-01 13:49 33.45653 -84.36176 12629 ft 327 kts 270°
2026-05-01 13:49 33.45667 -84.38969 12703 ft 347 kts 270°
2026-05-01 13:49 33.45680 -84.41932 12869 ft 364 kts 270°
2026-05-01 13:49 33.45688 -84.44996 13338 ft 370 kts 269°
2026-05-01 13:50 33.45689 -84.48089 13983 ft 372 kts 269°
2026-05-01 13:50 33.45716 -84.51172 14598 ft 372 kts 273°
2026-05-01 13:50 33.46075 -84.54261 15179 ft 374 kts 277°
2026-05-01 13:50 33.46485 -84.57339 15790 ft 375 kts 278°
2026-05-01 13:51 33.46896 -84.60420 16408 ft 376 kts 278°
2026-05-01 13:51 33.47168 -84.62472 16813 ft 376 kts 278°
2026-05-01 13:51 33.47578 -84.65571 17408 ft 377 kts 278°
2026-05-01 13:51 33.48121 -84.69687 18227 ft 378 kts 278°
2026-05-01 13:52 33.48399 -84.71789 18585 ft 379 kts 278°
2026-05-01 13:52 33.48945 -84.75923 19204 ft 381 kts 278°
2026-05-01 13:52 33.49358 -84.79060 19669 ft 382 kts 277°
2026-05-01 13:52 33.49636 -84.81182 19975 ft 383 kts 277°
2026-05-01 13:53 33.50051 -84.84344 20426 ft 385 kts 277°
2026-05-01 13:53 33.50875 -84.90673 21229 ft 385 kts 277°
2026-05-01 13:53 33.51279 -84.93852 21601 ft 387 kts 277°
2026-05-01 13:54 33.51694 -84.97059 21987 ft 390 kts 277°
2026-05-01 13:54 33.52116 -85.00274 22386 ft 390 kts 277°
2026-05-01 13:54 33.52537 -85.03499 22763 ft 393 kts 277°
2026-05-01 13:54 33.52958 -85.06739 23195 ft 394 kts 277°
2026-05-01 13:55 33.53379 -85.09989 23623 ft 396 kts 277°
2026-05-01 13:55 33.53800 -85.13259 23958 ft 398 kts 277°
2026-05-01 13:55 33.54221 -85.16552 24253 ft 400 kts 277°
2026-05-01 13:55 33.54608 -85.19846 24647 ft 398 kts 274°
2026-05-01 13:56 33.54643 -85.23145 25075 ft 396 kts 266°
2026-05-01 13:56 33.54256 -85.26363 25482 ft 396 kts 259°
2026-05-01 13:56 33.53648 -85.29574 25890 ft 394 kts 259°
2026-05-01 13:56 33.53050 -85.32776 26263 ft 393 kts 259°
2026-05-01 13:57 33.52459 -85.35968 26706 ft 392 kts 259°
2026-05-01 13:57 33.51874 -85.39148 27067 ft 393 kts 259°
2026-05-01 13:57 33.51283 -85.42364 27197 ft 397 kts 259°
2026-05-01 13:57 33.50684 -85.45618 27380 ft 401 kts 259°
2026-05-01 13:58 33.50083 -85.48872 27620 ft 401 kts 259°
2026-05-01 13:58 33.49477 -85.52129 27879 ft 400 kts 259°
2026-05-01 13:58 33.48872 -85.55375 28112 ft 400 kts 259°
2026-05-01 13:58 33.48260 -85.58622 28428 ft 400 kts 258°
2026-05-01 13:59 33.47648 -85.61871 28726 ft 400 kts 258°
2026-05-01 13:59 33.47038 -85.65115 29060 ft 398 kts 259°
2026-05-01 13:59 33.46433 -85.68348 29383 ft 397 kts 259°
2026-05-01 13:59 33.45828 -85.71573 29708 ft 396 kts 258°
2026-05-01 14:00 33.45224 -85.74791 30021 ft 395 kts 258°
2026-05-01 14:00 33.44620 -85.77982 30277 ft 391 kts 259°
2026-05-01 14:00 33.44017 -85.81153 30453 ft 392 kts 259°
2026-05-01 14:00 33.43409 -85.84338 30694 ft 392 kts 259°
2026-05-01 14:01 33.42804 -85.87508 30979 ft 390 kts 259°
2026-05-01 14:01 33.42204 -85.90668 31284 ft 389 kts 259°
2026-05-01 14:01 33.41603 -85.93822 31572 ft 387 kts 259°
2026-05-01 14:01 33.41008 -85.96941 31897 ft 385 kts 259°
2026-05-01 14:02 33.40415 -86.00057 32218 ft 383 kts 260°
2026-05-01 14:02 33.39827 -86.03151 32549 ft 380 kts 260°
2026-05-01 14:02 33.39242 -86.06233 32872 ft 378 kts 260°
2026-05-01 14:02 33.38659 -86.09290 33196 ft 377 kts 260°
2026-05-01 14:03 33.38073 -86.12340 33522 ft 375 kts 260°
2026-05-01 14:03 33.37490 -86.15368 33881 ft 373 kts 261°
2026-05-01 14:03 33.36908 -86.18389 34040 ft 371 kts 261°
2026-05-01 14:03 33.36327 -86.21391 34051 ft 370 kts 261°
2026-05-01 14:04 33.35175 -86.27370 34049 ft 368 kts 261°
2026-05-01 14:04 33.34026 -86.33341 34051 ft 368 kts 261°
2026-05-01 14:05 33.32871 -86.39307 34052 ft 368 kts 261°
2026-05-01 14:05 33.31712 -86.45235 34048 ft 368 kts 260°
2026-05-01 14:06 33.30535 -86.51235 34048 ft 368 kts 260°
2026-05-01 14:06 33.29380 -86.57156 34055 ft 368 kts 260°
2026-05-01 14:07 33.28211 -86.63115 34059 ft 368 kts 260°
2026-05-01 14:08 33.26460 -86.72031 34062 ft 367 kts 260°
2026-05-01 14:08 33.25295 -86.77964 34061 ft 365 kts 260°
2026-05-01 14:09 33.24124 -86.83874 34055 ft 366 kts 260°
2026-05-01 14:09 33.22943 -86.89785 34068 ft 366 kts 260°
2026-05-01 14:10 33.21762 -86.95707 34058 ft 366 kts 259°
2026-05-01 14:10 33.20579 -87.01626 34046 ft 367 kts 259°
2026-05-01 14:11 33.19400 -87.07551 34041 ft 367 kts 259°
2026-05-01 14:11 33.17616 -87.16438 34029 ft 367 kts 259°
2026-05-01 14:12 33.16422 -87.22360 34005 ft 367 kts 259°
2026-05-01 14:12 33.15222 -87.28289 34019 ft 367 kts 259°
2026-05-01 14:13 33.14236 -87.33206 34016 ft 367 kts 259°
2026-05-01 14:13 33.12836 -87.40122 34012 ft 367 kts 259°
2026-05-01 14:14 33.11623 -87.46041 34017 ft 368 kts 258°
2026-05-01 14:14 33.10220 -87.51928 34028 ft 370 kts 257°
2026-05-01 14:15 33.08713 -87.57804 34031 ft 370 kts 256°
2026-05-01 14:15 33.07240 -87.63663 34018 ft 370 kts 256°
2026-05-01 14:16 33.05770 -87.69557 34045 ft 372 kts 256°
2026-05-01 14:16 33.04317 -87.75465 34031 ft 372 kts 257°
2026-05-01 14:17 33.02853 -87.81382 34040 ft 372 kts 256°
2026-05-01 14:17 33.01385 -87.87243 34048 ft 371 kts 256°
2026-05-01 14:18 32.99910 -87.93130 34044 ft 368 kts 256°
2026-05-01 14:18 32.98676 -87.98007 34026 ft 367 kts 256°
2026-05-01 14:19 32.96973 -88.04799 34014 ft 368 kts 256°
2026-05-01 14:19 32.96006 -88.08713 34010 ft 370 kts 256°